Location: Heidgraben
(53.7081°N, 9.6576°E)
Time: 00:13:28
(UTC+00:00)

Cosmos 2333 Rocket - Pass Details

Date: 02 November 2020
Orbit: 841 x 861 km, 70.8° (Epoch: 28 November)

Event Time Altitude Azimuth Distance (km) Brightness Sun altitude
Exits shadow 03:09:30 13° 344° (NNW) 2,301 4.4 -28.9°
Maximum altitude 03:13:14 23° 30° (NNE) 1,751 4.2 -28.3°
Drops below altitude 10° 03:17:38 10° 81° (E) 2,468 5.6 -27.7°
Sets 03:20:37 0° 96° (E) 3,398 6.5 -27.3°
